Weather observations for the past three days for
Keesler Air Force Base / Biloxi
Metric (Imperial)
Date Time (cdt) Wind (kph) Vis. (km) Weather Sky Cond. Temperature (ºC) Relative Humidity Wind Chill (°C) Heat Index (°C) Pressure Precipitation (cm)
Air Dwpt 6 hour altimeter (cm) sea level (mb) 1 hr 3 hr 6 hr
Max. Min.
02 03:55 Calm 16.09 A Few Clouds FEW018 26.3 24.1 88% 29 76.17 1015.8
02 02:55 Calm 16.09 Fair CLR 26.2 24 88% 28 76.15 1015.5
02 01:55 NE 6 16.09 Fair CLR 26.7 24.3 87% 30 76.15 1015.5
02 00:55 Calm 16.09 Fair CLR 28.4 24.1 30 27.5 78% 33 76.15 1015.5
01 23:55 SW 6 16.09 Fair CLR 28.8 24.5 78% 34 76.17 1015.8
01 22:55 Calm 16.09 Fair CLR 28.8 24.5 78% 34 76.23 1016.5
01 21:55 SW 9 16.09 Fair CLR 29.4 24.2 74% 34 76.23 1016.5
01 20:55 S 7 16.09 Fair CLR 29.6 24.2 73% 35 76.2 1016.2
01 19:55 S 9 16.09 A Few Clouds FEW022 29.8 24.4 73% 35 76.12 1015.2
01 18:55 S 7 16.09 A Few Clouds FEW020 30 24.6 32.8 29.9 73% 36 76.12 1015.2
01 17:55 S 11 16.09 Fair CLR 30.7 24.3 69% 36 76.12 1015.2
01 16:55 S 13 16.09 Fair CLR 31 23.6 65% 36 76.12 1015.2
01 15:55 S 15 16.09 Fair CLR 31.8 24.9 67% 39 76.17 1015.8
01 14:55 S 17 16.09 Partly Cloudy FEW170 SCT200 31.3 23.6 64% 36 76.23 1016.5
01 13:55 SE 17 16.09 A Few Clouds FEW160 FEW200 32.6 24 61% 39 76.25 1016.8
01 12:55 S 20 16.09 A Few Clouds FEW065 FEW170 FEW200 32.3 24.3 32.7 25.9 63% 39 76.28 1017.2
01 11:55 SE 17 16.09 Partly Cloudy FEW025 FEW039 SCT055 31.8 24.6 66% 38 76.3 1017.5
01 10:55 E 13 16.09 Mostly Cloudy FEW020 FEW025 BKN034 BKN041 BKN050 31.1 24.4 68% 37 76.3 1017.5
01 09:55 E 15 16.09 Fair CLR 30 24.8 74% 36 76.3 1017.5
01 08:55 E 11 16.09 Partly Cloudy SCT022 29.1 24.8 78% 35 76.3 1017.5
01 07:55 E 11 16.09 Partly Cloudy FEW022 FEW030 SCT040 27.4 24.4 84% 31 76.28 1017.2
01 06:55 NE 7 16.09 A Few Clouds FEW024 FEW037 26 23.8 29 25.6 88% 28 76.23 1016.5
01 05:55 NE 7 16.09 A Few Clouds FEW023 25.7 23.5 88% 27 76.17 1015.8
01 04:55 NE 6 16.09 Mostly Cloudy BKN022 25.9 23.7 88% 28 76.17 1015.8
01 03:55 NE 6 16.09 Partly Cloudy SCT020 26.2 24 88% 28 76.12 1015.2
01 02:55 NE 6 16.09 Fair CLR 26.7 24.3 87% 30 76.15 1015.5
31 17:55 SE 17 16.09 A Few Clouds FEW110 30.3 24.2 70% 36 76.15 1015.5
31 16:55 S 11 16.09 Partly Cloudy FEW026 SCT080 30.7 23.8 67% 36 76.15 1015.5
31 15:55 E 11 16.09 Light Rain FEW028 SCT200 31 23.9 66% 36 76.17 1015.8 0.13
31 14:55 NE 26 16.09 Mostly Cloudy FEW014 BKN022 BKN030 BKN041 28.8 24.3 77% 34 76.23 1016.5 0.1
31 13:55 E 11 16.09 A Few Clouds FEW140 FEW180 30.4 23.5 67% 35 76.25 1016.8 0.03
31 12:55 E 24 16.09 Light Rain FEW021 SCT080 28 24 32.1 26.1 79% 32 76.28 1017.2 0.05 0.05
31 11:55 SE 15 16.09 Mostly Cloudy SCT028 BKN036 BKN044 32 23.5 61% 37 76.28 1017.2
31 10:55 E 15 16.09 Partly Cloudy SCT024 SCT037 31.2 23.8 65% 37 76.33 1017.9
31 09:55 E 19 16.09 Fair CLR 30.7 23.8 67% 36 76.28 1017.2
31 08:55 E 19 16.09 Fair CLR 29 23.9 74% 33 76.28 1017.2
31 07:55 E 15 16.09 Fair CLR 27.1 23.9 83% 30 76.25 1016.8
31 06:55 E 11 16.09 Fair CLR 26.2 23.4 26.9 26 85% 28 76.17 1015.8
31 05:55 E 13 16.09 Fair CLR 26.1 23.5 86% 28 76.15 1015.5
31 04:55 E 11 16.09 Fair CLR 26.2 23.6 86% 28 76.12 1015.2
31 03:55 E 9 16.09 A Few Clouds FEW024 26.2 23.6 86% 28 76.12 1015.2
31 02:55 E 9 16.09 Fair CLR 26.6 23.8 85% 29 76.1 1014.8
31 01:55 E 9 16.09 Fair CLR 26.5 23.5 84% 29 76.12 1015.2
31 00:55 E 9 16.09 Fair CLR 26.8 23.6 29.7 26.7 83% 30 76.17 1015.8
30 23:55 E 9 16.09 Fair CLR 27.3 23.5 80% 30 76.2 1016.2
30 22:55 E 9 16.09 Fair CLR 27.5 23.5 79% 31 76.2 1016.2
30 21:55 NE 6 16.09 Fair CLR 27.3 23.3 79% 30 76.2 1016.2
30 20:55 E 11 16.09 Fair CLR 28.7 23.1 72% 32 76.17 1015.8
30 19:55 E 13 16.09 Fair CLR 29 23.2 71% 33 76.12 1015.2
30 18:55 E 15 16.09 Fair CLR 29.8 23 31.7 29.8 67% 34 76.1 1014.8
30 17:55 SE 20 16.09 Fair CLR 31.1 23.2 63% 36 76.1 1014.8
30 16:55 SE 22 16.09 Fair CLR 31.2 22.7 61% 35 76.12 1015.2
30 15:55 SE 19 16.09 Fair CLR 30.6 23.2 65% 35 76.12 1015.2
30 14:55 SE 26 16.09 Fair CLR 30.7 22.3 61% 34 76.2 1016.2
30 13:55 SE 24 16.09 Fair CLR 31.5 23 61% 36 76.23 1016.5
30 12:55 SE 22 16.09 Partly Cloudy SCT024 SCT030 30.2 23.8 32.2 25.5 69% 35 76.28 1017.2 0.15 0.2
30 11:55 SE 9 16.09 Light Rain FEW014 SCT026 27.3 23.3 79% 30 76.33 1017.9 0.05
30 10:55 E 15 16.09 Fair CLR 31.4 23.5 63% 37 76.33 1017.9
30 09:55 E 17 16.09 A Few Clouds FEW044 FEW055 30.7 23.8 67% 36 76.3 1017.5
30 08:55 E 17 16.09 Fair CLR 28.8 23.7 74% 33 76.28 1017.2
30 07:55 NE 13 16.09 Fair CLR 27 23.6 82% 30 76.25 1016.8
30 06:55 NE 13 16.09 Fair CLR 25.5 23.1 27 25.2 87% 27 76.23 1016.5
30 05:55 NE 13 16.09 Fair CLR 25.4 23 87% 27 76.17 1015.8
30 04:55 NE 13 16.09 Fair CLR 25.4 23 87% 27 76.12 1015.2
Date Time (cdt) Wind (kph) Vis. (km) Weather Sky Cond. Air Dwpt Max. Min. Relative Humidity Wind Chill (°C) Heat Index (°C) altimeter (cm) sea level (mb) 1 hr 3 hr 6 hr
6 hour
Temperature (ºC) Pressure Precipitation (cm)